Simultaneous Nadir Overpasses (SNOs) Predictions

Prediction of SNOs between AQUA and NOAA-19 Satellite Orbit:

Table of predicted SNOs for the next 14.0 days since TLE Epoch: 12/31/2011
Index Date Time (AQUA) AQUA Lat,Lon NOAA-19 Lat,Lon Distance(km) Time Diff (sec)
1 01/01/2012 08:38:44 50.10, -96.02 50.11, -96.01 0.66 8
2 01/03/2012 12:36:32 -39.86, 21.52 -39.87, 21.53 0.31 65
3 01/05/2012 17:19:15 -45.55, -47.62 -45.55, -47.62 0.28 35
4 01/07/2012 22:02:14 -50.23,-116.84 -50.23,-116.86 0.90 4
5 01/10/2012 01:59:42 40.73, 0.96 40.73, 0.96 0.09 62
6 01/12/2012 07:28:31 -58.31, 105.10 -58.31, 105.11 0.22 60




NCC Satellite Simultaneous Nadir Overpasses (SNOs) Prediction Service
